This demonstration page uses our WeatherBlox Daily Observations layout. Learn more.

Left ArrowRight Arrow

31.84235, -102.49876

Hourly Observations for March 30, 2015

Temp ( °F °C ) Dew Point ( °F °C ) Humidity (%) Winds ( mph kmh ) Pressure ( in mb ) Visibility ( mi km ) Precip ( " mm )
12:53 am 00:53 Clear 63 17.2 37 2.8 38 38 ESE 13 20 30.06 1018 10 16 0.00 0.00
1:53 am 01:53 Clear 60 15.6 38 3.3 44 44 E 10 17 30.05 1018 10 16 0.00 0.00
2:53 am 02:53 Clear 56 13.3 39 3.9 53 53 E 8 13 30.05 1018 10 16 0.00 0.00
3:53 am 03:53 Clear 53 11.7 40 4.4 61 61 ENE 8 13 30.05 1018 10 16 0.00 0.00
4:53 am 04:53 Clear 54 12.2 39 3.9 57 57 NE 9 15 30.04 1017 10 16 0.00 0.00
5:53 am 05:53 Clear 52 11.1 40 4.4 64 64 N 9 15 30.07 1018 10 16 0.00 0.00
6:53 am 06:53 Clear 51 10.6 39 3.9 64 64 NNE 10 17 30.09 1019 10 16 0.00 0.00
7:53 am 07:53 Sunny 51 10.6 40 4.4 66 66 NNE 9 15 30.12 1020 10 16 0.00 0.00
8:53 am 08:53 Sunny 54 12.2 40 4.4 59 59 NNE 12 19 30.14 1021 10 16 0.00 0.00
9:53 am 09:53 Sunny 59 15 42 5.6 54 54 NE 9 15 30.14 1021 10 16 0.00 0.00
10:53 am 10:53 Sunny 62 16.7 43 6.1 50 50 undefined N/A 30.15 1021 10 16 0.00 0.00
11:53 am 11:53 Sunny 65 18.3 45 7.2 49 49 ESE 8 13 30.14 1021 10 16 0.00 0.00
12:53 pm 12:53 Sunny 69 20.6 47 8.3 45 45 undefined N/A 30.13 1020 10 16 0.00 0.00
1:53 pm 13:53 Sunny 72 22.2 51 10.6 48 48 S 7 11 30.10 1019 10 16 0.00 0.00
2:53 pm 14:53 Sunny 75 23.9 52 11.1 45 45 S 6 9 30.06 1018 10 16 0.00 0.00
3:53 pm 15:53 Sunny 78 25.6 51 10.6 39 39 SE 7 11 30.03 1017 10 16 0.00 0.00
4:53 pm 16:53 Sunny 78 25.6 51 10.6 39 39 SSW 9 15 30.00 1016 10 16 0.00 0.00
5:53 pm 17:53 Sunny 78 25.6 52 11.1 40 40 S 14 22 29.97 1015 10 16 0.00 0.00
6:53 pm 18:53 Sunny 78 25.6 52 11.1 40 40 S 8 13 29.96 1015 10 16 0.00 0.00
7:53 pm 19:53 Sunny 76 24.4 52 11.1 43 43 S 6 9 29.96 1015 10 16 0.00 0.00
8:53 pm 20:53 Clear 73 22.8 52 11.1 48 48 Calm 29.97 1015 10 16 0.00 0.00
9:53 pm 21:53 Clear 74 23.3 51 10.6 45 45 S 14 22 29.98 1015 10 16 0.00 0.00
10:53 pm 22:53 Clear 71 21.7 54 12.2 55 55 S 13 20 29.97 1015 10 16 0.00 0.00
11:53 pm 23:53 Clear 69 20.6 55 12.8 61 61 S 12 19 29.97 1015 10 16 0.00 0.00

Powered by AerisWeather